Home > Weather > Târgu Mureş > Past weeks

Flag for Romania Past Weather in Târgu Mureş, Romania — Yesterday and Last 2 Weeks

Now
77 °F

Sunny.


Feels Like: 78 °F
Forecast: 50 / 82 °F
Wind: 2 mph from North

Location: Tirgu Mures Airport

Current Time: Aug 26, 2016 at 3:21:19 PM

Latest Report: Aug 26, 2016 at 3:00 PM


Visibility: 10 mi

Pressure: 30.21 "Hg

Humidity: 39%

Dew Point: 50 °F

Location of Târgu MureşLocation

Past Weather in Târgu Mureş — Graph

°F

Târgu Mureş Temperature Yesterday

Maximum temperature yesterday: 81 °F (at 2:30 PM)
Minimum temperature yesterday: 57 °F (at 11:00 PM)
Average temperature yesterday: 70 °F

High & Low Weather Summary for the Past Weeks

 TemperatureHumidityPressure
High86 °F (Aug 21, 3:00 PM)100% (Aug 12, 11:00 PM)30.30 "Hg (Aug 12, 11:00 PM)
Low43 °F (Aug 14, 6:00 AM)36% (Aug 13, 6:00 PM)29.80 "Hg (Aug 17, 4:30 PM)
Average66 °F77%30.09 "Hg
* Reported Aug 11 2:00 PM — Aug 26 2:00 PM, Târgu Mureş, Weather by CustomWeather, © 2016

Note: Actual official high and low records may vary slightly from our data, if they occured in-between our weather recording intervals... More about our weather records

Advertising

Târgu Mureş Weather History for the Previous 24 Hours

Scroll right to see more
 ConditionsComfort  
Time TempWeatherWind HumidityBarometerVisibility
2:00 PM
Fri, Aug 26
77 °FPassing clouds.6 mph39%30.24 "HgN/A
1:30 PM77 °FPassing clouds.6 mph42%30.24 "HgN/A
1:00 PM75 °FPassing clouds.3 mph41%30.24 "HgN/A
12:30 PM77 °FPassing clouds.3 mph39%30.24 "HgN/A
12:00 PM75 °FPassing clouds.5 mph44%30.24 "HgN/A
11:30 AM73 °FPassing clouds.2 mph50%30.27 "HgN/A
11:00 AM70 °FPassing clouds.1 mph57%30.27 "HgN/A
10:30 AM68 °FSunny.2 mph60%30.27 "Hg10 mi
10:00 AM64 °FPassing clouds.5 mph68%30.27 "HgN/A
9:30 AM63 °FPassing clouds.5 mph73%30.27 "HgN/A
9:00 AM59 °FSunny.6 mph82%30.27 "Hg10 mi
8:30 AM57 °FPassing clouds.6 mph88%30.27 "HgN/A
8:00 AM54 °FPassing clouds.6 mph94%30.27 "Hg5 mi
7:30 AM52 °FPassing clouds.5 mph94%30.24 "Hg5 mi
7:00 AM48 °FClear.5 mph100%30.24 "Hg10 mi
6:30 AM48 °FClear.5 mph100%30.24 "Hg10 mi
6:00 AM48 °FClear.5 mph100%30.24 "Hg10 mi
5:30 AM50 °FClear.1 mph100%30.24 "Hg10 mi
5:00 AM52 °FClear.2 mph94%30.21 "Hg10 mi
4:00 AM52 °FClear.5 mph94%30.21 "Hg10 mi
3:00 AM52 °FClear.6 mph94%30.21 "Hg10 mi
2:00 AM55 °FClear.6 mph88%30.21 "Hg10 mi
1:00 AM55 °FClear.5 mph88%30.21 "Hg10 mi
12:00 AM55 °FClear.5 mph88%30.21 "Hg10 mi
11:00 PM
Thu, Aug 25
57 °FClear.6 mph88%30.18 "Hg10 mi
10:00 PM59 °FClear.6 mph82%30.18 "Hg10 mi
9:00 PM64 °FSunny.3 mph73%30.15 "Hg10 mi
8:30 PM68 °FSunny.2 mph60%30.15 "Hg10 mi
8:00 PM72 °FSunny.No wind61%30.15 "Hg10 mi
7:30 PM73 °FSunny.3 mph50%30.12 "Hg10 mi
7:00 PM77 °FSunny.6 mph39%30.12 "Hg10 mi
6:30 PM79 °FPassing clouds.5 mph37%30.12 "HgN/A
6:00 PM79 °FSunny.2 mph37%30.12 "Hg10 mi
5:30 PM79 °FPassing clouds.5 mph39%30.12 "HgN/A
5:00 PM77 °FPassing clouds.2 mph42%30.12 "HgN/A
4:30 PM79 °FPassing clouds.8 mph37%30.15 "HgN/A
4:00 PM79 °FScattered clouds.7 mph39%30.15 "HgN/A
3:30 PM79 °FScattered clouds.10 mph39%30.15 "HgN/A
3:00 PM79 °FScattered clouds.6 mph37%30.15 "HgN/A
Weather by CustomWeather, © 2016

See weather overviewHow to use our weather pages